RH
100 100 100 99 86 78 60 46 32 23 24 22 21 20 20 27 31 44 65 62 54 47 31 26 23 22 17 16 15 12 12 13 12 13 14 15 15 15 14 14 15 15 15
86 80 68 64 61 40 32 22 18 23 16 23 31 29 26 29 30 26 26 26 21 14 13 15 15 15 12 12 12 9 8 11 12 11 10 10 10 12 12 13 14 14 13
29 25 25 19 19 19 19 21 23 34 30 31 28 27 32 35 27 22 16 14 15 18 19 22 20 16 12 12 8 13 22 25 24 17 14 11 10 10 9 9 8 8 8
25 26 22 17 20 20 21 28 41 46 30 37 36 34 31 27 25 24 23 23 21 17 16 17 15 11 11 10 10 11 14 16 25 22 25 24 19 17 17 12 14 12 9
28 32 28 23 20 20 22 26 26 29 42 46 41 37 34 30 27 28 26 28 23 18 14 11 11 10 10 11 12 19 16 23 34 36 26 35 29 28 22 18 21 20 17
51 60 56 35 23 24 23 28 30 34 43 47 47 42 40 35 37 33 34 24 23 16 14 14 12 12 14 14 15 82 32 66 73 46 36 39 33 27 31 26 24 26 24
88 94 95 83 64 36 27 26 27 31 31 30 36 37 36 34 33 28 22 24 24 19 16 16 16 17 17 19 57 90 68 74 46 36 32 38 37 44 34 30 30 34 32
100 100 100 100 86 58 38 33 31 31 30 32 33 32 28 26 24 21 20 21 22 21 19 21 20 21 18 25 100 95 70 51 57 39 43 78 61 54 37 28 34 37 35
76 93 100 100 100 87 58 38 34 31 29 30 32 31 29 28 26 28 24 19 20 19 16 18 20 17 19 53 100 75 82 68 78 71 62 52 71 67 39 37 38 40 39
100 100 100 100 100 100 92 61 44 34 33 31 30 32 32 32 33 32 29 28 28 25 23 21 19 16 21 23 96 100 91 76 64 99 68 41 74 69 52 46 46 44 44
100 100 100 76 100 100 100 84 72 54 40 36 34 44 52 51 42 40 39 38 34 27 24 20 23 29 37 46 72 99 100 100 94 100 100 32 45 71 75 62 36 41 45
100 100 100 100 100 100 100 98 92 79 61 43 38 45 48 51 56 61 59 58 39 30 35 30 21 27 62 79 67 75 89 100 92 100 100 50 27 57 71 71 43 24 31
100 100 80 100 100 100 100 100 100 100 76 59 47 40 46 57 67 68 72 61 44 38 37 32 39 63 51 66 52 63 67 85 93 100 100 95 19 40 39 61 55 35 20
30 54 100 100 100 100 100 100 100 100 91 73 56 48 56 69 75 84 80 71 48 61 82 80 58 40 43 69 83 67 67 66 69 100 100 96 80 46 40 54 62 56 42
42 37 40 94 70 67 100 100 100 100 100 92 88 85 84 100 97 91 89 80 100 100 100 91 83 96 100 100 80 70 78 73 58 86 100 100 100 72 51 42 50 81 63
35 31 44 52 61 56 52 70 79 100 100 100 100 100 99 96 100 90 100 100 100 100 91 100 100 99 79 95 91 99 78 61 42 48 79 97 100 100 94 51 67 66 100
47 35 33 30 44 42 100 78 80 71 76 77 71 67 56 80 100 100 100 100 100 100 100 69 100 100 100 100 100 97 84 58 36 35 56 82 78 100 100 100 92 64 82
77 66 52 46 42 33 33 40 41 53 58 52 60 64 66 60 56 47 58 74 96 99 85 97 94 99 100 100 100 100 96 58 38 44 50 66 98 72 92 72 100 100 58
100 100 95 84 72 75 89 97 95 98 100 100 100 98 99 99 100 78 64 65 76 63 63 66 87 92 95 100 100 88 90 97 87 77 77 98 100 100 100 100 96 82 100
84 75 85 100 100 100 100 96 92 91 82 85 82 81 67 64 74 76 77 76 69 63 64 80 75 72 86 96 92 100 64 86 100 100 99 100 100 80 81 87 100 77 66
75 59 59 68 100 100 100 100 90 54 44 68 77 86 79 83 85 79 61 74 82 97 74 61 63 65 81 87 85 100 82 100 100 100 72 96 95 91 100 78 98 98 75
100 100 100 88 78 78 98 93 100 97 75 70 68 68 62 67 64 68 69 86 100 100 83 67 53 58 60 71 82 74 81 100 99 100 99 65 72 100 100 83 78 97 82
46 57 66 81 96 96 100 100 99 76 63 54 56 62 83 93 95 85 71 68 59 66 70 59 62 67 100 72 66 76 52 100 100 98 99 100 100 100 100 93 100 76 77
49 76 69 57 38 43 54 56 51 59 64 79 92 99 100 100 100 100 100 96 54 87 92 59 53 44 39 40 64 81 92 96 96 98 100 100 100 100 100 100 100 77 49
43 36 41 57 84 100 100 100 100 100 86 68 73 99 97 95 98 100 100 100 100 100 91 96 77 54 36 34 36 29 28 71 100 100 99 100 100 100 97 100 100 100 95
86 77 57 30 43 70 73 70 81 82 88 88 78 80 71 80 100 100 100 100 100 84 79 90 100 70 30 30 24 21 13 33 88 100 96 100 100 100 88 99 100 100 100
Wind_Speed
15 13 22 24 22 20 21 24 28 25 26 24 23 25 28 27 27 25 27 28 29 30 29 30 30 33 32 33 34 36 38 43 43 47 52 53 54 54 55 55 54 53 53
20 17 16 22 26 25 20 22 21 16 16 13 14 15 17 17 16 17 17 18 18 20 20 22 25 26 28 29 28 32 34 35 38 40 41 43 47 50 51 52 53 52 52
20 18 21 21 19 18 18 18 12 8 6 6 10 11 13 13 15 14 13 17 21 24 26 27 26 25 26 24 29 29 30 34 38 35 38 40 38 40 40 41 44 47 49
13 15 18 19 12 9 9 12 11 8 8 10 11 12 11 13 15 16 19 24 26 28 25 24 21 24 29 31 34 35 38 42 40 38 35 34 33 35 33 36 36 38 36
15 17 15 16 16 13 11 8 9 12 13 13 13 15 16 18 20 22 26 30 31 27 26 26 27 30 32 34 38 45 44 39 38 35 34 31 29 26 25 27 27 29 30
21 21 21 20 16 16 16 13 11 13 14 16 18 20 21 26 27 31 33 32 27 28 29 30 32 37 42 42 44 28 33 28 29 31 31 28 27 29 26 27 26 28 30
22 22 22 23 21 18 18 18 18 17 19 21 24 25 27 30 30 33 34 33 30 31 33 36 38 41 40 40 28 24 30 25 24 26 26 26 27 23 24 26 25 27 29
23 24 27 21 22 23 21 23 22 21 22 24 27 30 32 31 31 33 33 31 33 35 37 39 40 40 36 35 13 19 25 27 20 23 20 19 16 20 23 25 25 26 26
21 23 26 28 25 26 27 27 26 27 25 25 28 30 30 33 34 35 34 35 37 37 37 37 40 37 35 23 15 18 21 27 23 26 21 16 17 21 25 25 22 26 27
26 28 28 27 29 29 32 33 32 32 30 29 29 32 31 34 36 37 37 38 39 40 39 39 38 39 32 31 18 18 22 27 25 25 24 21 22 23 23 26 26 24 26
25 27 29 27 28 30 34 34 35 39 35 32 31 32 32 35 37 40 40 41 39 36 36 37 36 35 26 23 21 16 20 23 21 27 24 22 22 25 24 28 26 24 24
29 32 29 30 39 36 33 35 41 43 41 37 36 35 38 38 41 45 44 43 37 36 38 35 35 34 26 25 30 27 23 20 27 23 29 32 27 24 25 25 25 23 18
29 27 30 30 31 30 37 41 42 45 46 44 42 41 43 43 43 44 43 42 42 39 39 36 32 28 29 30 34 33 32 26 22 28 30 35 31 26 26 26 26 22 21
31 32 31 36 33 35 38 34 41 44 47 48 47 46 48 47 49 46 46 44 39 35 34 33 32 36 38 38 42 40 37 37 33 27 33 33 37 34 30 29 26 29 27
25 26 32 36 38 41 39 40 36 46 45 50 50 48 48 47 49 46 47 46 39 34 35 36 38 42 41 45 45 48 44 43 39 37 32 31 34 30 33 32 32 29 29
27 26 27 30 34 38 43 48 46 37 38 41 42 40 42 42 41 40 42 43 44 46 43 45 45 48 50 50 52 52 51 49 46 44 39 35 39 40 39 35 35 33 29
33 36 36 34 34 33 32 38 35 37 39 41 41 43 47 45 46 51 54 51 49 52 50 49 52 53 50 50 54 56 51 54 48 49 50 47 48 41 33 40 38 37 29
35 38 41 41 42 42 40 40 41 43 45 46 48 50 50 55 59 60 59 60 57 58 57 54 53 53 52 50 54 58 61 59 58 55 54 52 51 47 43 40 43 46 41
41 43 48 49 48 46 47 47 48 47 47 49 52 55 58 60 61 66 68 70 70 70 70 66 63 62 61 63 63 59 54 51 51 53 49 50 47 49 57 51 46 48 50
35 35 40 47 51 42 43 44 46 50 53 54 55 58 59 59 62 65 65 63 68 73 74 71 70 70 70 68 69 69 61 63 62 52 52 49 52 52 56 58 47 45 47
41 41 44 42 45 49 50 50 50 53 54 58 60 62 62 66 70 69 69 70 75 74 73 75 74 66 68 68 72 69 67 71 54 59 62 57 52 56 53 49 43 44 41
47 50 52 51 49 54 58 55 58 57 57 58 58 61 61 62 67 65 72 76 83 86 89 83 81 84 81 77 73 67 70 58 65 61 54 55 55 55 50 50 51 49 44
44 47 48 48 49 50 52 57 59 65 68 67 68 74 82 83 82 88 93 94 95 97 99 100 87 86 83 90 86 80 67 59 61 52 55 46 52 56 50 54 50 53 53
53 57 60 58 53 57 61 66 67 70 73 79 84 86 89 92 92 95 102 102 103 116 117 113 106 98 95 91 93 87 78 73 59 50 45 74 51 55 48 55 62 67 64
54 57 59 61 65 69 71 77 78 78 87 86 87 90 95 97 100 106 108 111 117 123 123 112 112 110 106 94 94 98 94 76 78 54 66 56 68 58 52 60 58 57 64
62 61 66 64 65 68 71 80 83 88 92 96 98 97 101 107 110 116 124 125 133 135 130 116 115 116 114 110 109 98 89 97 88 85 76 93 93 85 68 59 65 62 64
Wind_Direction
240 271 252 264 276 278 273 275 270 265 262 259 260 259 260 261 266 268 267 266 267 270 272 274 278 276 281 281 282 286 285 281 279 278 276 274 274 275 275 274 273 272 274
270 297 311 296 287 286 278 267 266 251 252 245 255 258 262 262 267 268 268 267 276 292 303 303 302 299 302 301 301 307 303 299 292 281 279 279 276 275 276 278 277 276 275
279 287 284 295 296 274 255 240 226 225 254 276 282 281 279 276 273 288 307 314 312 312 309 299 297 295 297 295 310 319 312 304 294 291 288 280 280 277 279 280 279 277 277
272 281 291 299 299 306 274 238 237 263 279 307 299 285 291 277 281 287 302 310 309 306 306 301 305 304 310 304 305 307 306 305 299 291 287 291 290 289 293 287 286 280 282
266 279 281 287 306 309 298 309 291 286 296 304 300 295 292 289 295 297 304 306 305 305 310 309 306 307 310 309 307 307 307 298 294 296 294 294 298 290 293 301 294 293 289
278 279 284 291 290 302 311 306 304 294 282 281 285 288 285 292 291 297 297 304 300 300 301 307 303 307 312 309 309 296 293 291 291 292 301 291 299 300 302 309 295 295 296
307 299 283 283 288 287 287 293 298 291 290 289 275 278 281 282 284 293 297 300 294 295 301 303 302 305 311 318 306 289 290 287 309 312 309 293 289 301 306 303 295 289 292
306 309 305 285 273 276 270 271 276 279 279 276 278 280 288 286 292 299 297 296 297 298 297 298 299 304 313 314 302 308 304 300 318 321 329 305 299 306 310 310 292 283 289
295 305 304 304 278 267 269 262 264 268 266 262 262 272 280 285 293 300 300 298 298 295 295 296 297 305 307 300 289 292 299 301 329 321 330 322 316 311 317 311 301 278 279
304 303 304 310 301 278 260 260 262 267 265 262 270 269 275 276 283 291 292 292 291 289 292 294 296 304 302 296 302 287 293 298 303 319 325 317 311 310 329 321 306 283 274
294 297 298 299 296 290 282 268 267 265 263 260 262 268 274 277 282 284 288 291 287 287 289 292 295 295 294 291 300 320 318 289 302 310 315 321 322 305 313 324 312 296 270
290 287 285 298 299 286 289 284 274 266 265 261 264 269 275 277 282 286 286 282 283 285 288 289 288 289 287 295 319 305 310 295 286 305 306 306 306 304 305 311 320 306 271
266 268 268 272 286 284 283 284 284 271 261 265 265 268 273 275 275 273 276 282 284 285 285 283 282 280 287 291 308 310 300 301 295 297 308 300 297 301 298 304 306 302 292
266 263 269 272 278 272 273 276 282 278 268 263 266 268 272 274 275 275 280 285 284 287 290 290 281 280 286 289 297 300 298 301 299 301 316 301 298 293 290 291 297 300 297
286 280 259 265 268 273 272 273 273 273 273 265 268 268 270 272 272 273 272 274 280 281 289 284 285 291 287 286 295 294 295 298 297 301 306 298 290 285 279 283 282 288 289
289 278 271 263 270 273 273 274 275 276 275 274 273 272 276 278 277 280 279 277 274 274 278 277 281 284 287 285 288 291 289 290 292 295 295 292 302 296 284 281 282 271 295
290 291 291 284 270 273 270 277 280 280 281 284 281 278 277 277 274 276 280 276 273 270 275 280 280 285 293 293 291 287 285 288 290 293 291 293 287 291 282 275 283 273 272
299 291 289 291 289 287 286 282 279 281 282 281 282 281 281 286 285 283 277 277 280 279 279 277 278 277 272 269 271 284 287 288 287 289 293 292 291 287 282 277 275 267 263
296 293 291 290 288 290 292 293 291 291 293 289 286 284 283 282 281 280 280 281 281 279 277 275 272 273 273 274 274 282 285 292 294 287 286 284 283 287 294 281 278 270 261
294 299 295 290 280 284 292 291 289 286 286 285 283 282 281 279 279 281 281 282 281 277 276 276 270 268 269 275 276 278 278 282 286 288 284 287 279 282 284 284 281 279 267
298 297 292 291 283 283 290 290 287 287 290 283 277 277 274 276 280 280 280 280 282 281 273 269 273 272 270 270 271 276 277 277 273 291 285 279 279 276 285 280 279 276 267
294 291 289 287 284 284 288 283 288 286 291 289 287 292 287 278 284 282 281 280 281 280 280 279 268 268 270 269 271 271 271 294 268 283 281 274 270 275 279 280 277 277 271
305 298 297 295 290 294 291 289 289 290 295 292 291 290 293 292 287 285 289 293 291 289 287 284 269 264 267 265 268 272 267 267 267 277 282 273 273 273 267 277 274 277 274
308 302 303 309 305 300 301 301 297 295 290 290 288 288 287 285 284 283 288 288 284 290 287 285 279 269 269 261 261 258 260 261 254 256 272 277 262 267 266 267 273 276 276
300 303 306 306 302 299 300 296 296 296 298 297 291 288 285 285 283 281 281 283 282 285 283 277 273 271 267 257 252 256 256 251 249 254 246 256 247 258 256 279 259 269 272
298 299 301 301 299 295 296 296 294 294 292 290 292 286 287 286 285 285 282 279 279 278 275 267 265 265 263 261 253 252 249 250 249 246 239 246 253 254 253 259 263 261 271